Location: Bratislava
(0.0000°N, 17.1167°E)
Time: 05:25:45
(UTC+01:00)

Helios 1A Rocket - Pass Details

Date: 24 January 2021
Orbit: 562 x 586 km, 98.3° (Epoch: 04 March)

Event Time Altitude Azimuth Distance (km) Brightness Sun altitude
Rises 19:34:51 0° 180° (S) 2,790 6.7 -21.5°
Reaches altitude 10° 19:37:04 10° 187° (S) 1,893 5.9 -22.0°
Maximum altitude 19:40:57 41° 258° (WSW) 849 4.2 -22.9°
Drops below altitude 10° 19:44:49 10° 328° (NNW) 1,895 5.7 -23.8°
Sets 19:47:04 0° 336° (NNW) 2,794 6.5 -24.3°
